Location: Abbey Hill
(34.0751°N, 84.0688°W)
Time: 11:57:03
(UTC+00:00)

X-37B - Pass Details

Date: 20 September 2021
Orbit: 385 x 389 km, 45.0° (Epoch: 17 October)

Event Time Altitude Azimuth Distance (km) Brightness Sun altitude
Exits shadow 09:50:59 38° 161° (SSE) 603 1.5 -19.7°
Maximum altitude 09:51:20 40° 142° (SE) 585 1.6 -19.6°
Drops below altitude 10° 09:54:20 10° 71° (ENE) 1,411 4.7 -19.0°
Sets 09:56:29 0° 64° (ENE) 2,268 6.0 -18.6°
